Über Flock 4be-10
Group: 3 satellites
Beschreibung wird geladen...
Live-Position
3D-Globus wird geladen...
Nächste Überflüge
Höhenverlauf
Altitude vs Time
uPlot chart will show altitude changes over time
Zweizeiliger Elementsatz
1 60503U 24149AM 26073.22290879 .00340740 00000-0 21022-2 0 9998
2 60503 97.3730 159.6771 0005879 226.1729 133.9051 15.76178341 87908
Epoch: 14. März 2026 •
Age: 12 hours
Aktueller Status
Höhe 346.7 km
Geschwindigkeit 7.70 km/s
Subsatellitenpunkt -3.70°S,
85.51°E
Startdatum 16. Aug. 2024
Alter 1.5 years
Typ earth observation
Technische Details
Klassifizierung Payload
Masse 5.70 kg
Trockenmasse 5.70 kg
Gesamtmasse 5.70 kg
Länge 0.30 m
Durchmesser 0.10 m
Spannweite 0.30 m
Form Box+2 pan
Hersteller PLAN
Bus-Typ Cubesat 3U
Phasenstatus In Orbit
Besitzer/Staat PLAN/US
Große Konstellationen
Loading constellations...